{"data":{"norad_id":63781,"intl_designator":"2025-091G","name":"STARLINK-33883","alt_names":[],"object_type":"PAYLOAD","status":"ACTIVE","operator":null,"country":"US","launch_date":"2025-05-02","launch_site_code":"AFETR","launch_vehicle":null,"mission":null,"orbit_class":"UNKNOWN","rcs_meters":null,"size_class":null,"mass_kg":null,"dimensions":null,"purposes":["comms"],"wikipedia_slug":null,"has_3d_model":false,"image_url":null,"decayed_at":null,"tle_current":{"epoch":"2026-09-19T17:11:18.377088Z","epoch_age_seconds":217639,"freshness":"STALE","line1":"1 63781U 25091G   26262.71618492  .00012851  00000+0  47545-3 0  9992","line2":"2 63781  43.0020  36.9724 0001954 273.3995  86.6633 15.27596659 78578","mean_motion":15.27596659,"eccentricity":0.0001954,"inclination_deg":43.002,"raan_deg":36.9724,"arg_perigee_deg":273.3995,"mean_anomaly_deg":86.6633,"bstar":0.00047545,"rev_number":7857,"period_min":94.265720700296,"perigee_km":481.65854743783,"apogee_km":484.33987947005,"semimajor_km":6861.1362134539,"source":"CELESTRAK","updated_at":"2026-09-21T09:00:35.098964Z"}}}